,,,PA_Meas_PMT16A,,PR_Meas_QMR101_102,,RH_Meas_QMH101,,SR_Meas_QMS101,,TA_Meas_QMH101,,GenWind,,GenWind,
date,time,status,PA,status,PR,status,RH,status,SR,status,TA,status,DirAvg,status,SpdAvg,
2009-01-19, 00:00:05,VALID,1004.42,VALID,0,VALID,91.5923,VALID,0,VALID,25.4169,VALID,37,VALID,0,
2009-01-19, 00:01:05,VALID,1004.41,VALID,0,VALID,91.6686,VALID,0,VALID,25.4169,VALID,37,VALID,0.169922,
2009-01-19, 00:02:05,VALID,1004.43,VALID,0,VALID,91.6839,VALID,0,VALID,25.3974,VALID,37,VALID,0.407031,
2009-01-19, 00:03:05,VALID,1004.43,VALID,0,VALID,91.8059,VALID,0,VALID,25.3584,VALID,37,VALID,0,
2009-01-19, 00:04:05,VALID,1004.41,VALID,0,VALID,91.9204,VALID,0,VALID,25.3176,VALID,37,VALID,0,
2009-01-19, 00:05:05,VALID,1004.42,VALID,0,VALID,92.0348,VALID,0,VALID,25.339,VALID,37,VALID,0,
2009-01-19, 00:06:05,VALID,1004.41,VALID,0,VALID,92.1569,VALID,0,VALID,25.339,VALID,37,VALID,0.0316406,
2009-01-19, 00:07:05,VALID,1004.41,VALID,0,VALID,92.1492,VALID,0,VALID,25.3195,VALID,37,VALID,0.275781,
2009-01-19, 00:08:05,VALID,1004.39,VALID,0,VALID,92.1569,VALID,0,VALID,25.2981,VALID,37,VALID,0.252734,
2009-01-19, 00:09:05,VALID,1004.38,VALID,0,VALID,92.2332,VALID,0,VALID,25.2981,VALID,37,VALID,0.225,
2009-01-19, 00:10:05,VALID,1004.37,VALID,0,VALID,92.3323,VALID,0,VALID,25.3019,VALID,37,VALID,0.215625,
2009-01-19, 00:11:05,VALID,1004.35,VALID,0,VALID,92.401,VALID,0,VALID,25.3214,VALID,37,VALID,0.250391,
2009-01-19, 00:12:05,VALID,1004.34,VALID,0,VALID,92.3934,VALID,0,VALID,25.3019,VALID,37,VALID,0.420312,
2009-01-19, 00:13:05,VALID,1004.32,VALID,0,VALID,92.4315,VALID,0,VALID,25.2611,VALID,37,VALID,0.362891,
2009-01-19, 00:14:05,VALID,1004.34,VALID,0,VALID,92.4849,VALID,0,VALID,25.2825,VALID,37,VALID,0.0488281,
2009-01-19, 00:15:05,VALID,1004.34,VALID,0,VALID,92.5383,VALID,0,VALID,25.263,VALID,37,VALID,0.003125,
2009-01-19, 00:16:05,VALID,1004.33,VALID,0,VALID,92.6146,VALID,0,VALID,25.2435,VALID,37,VALID,0,
2009-01-19, 00:17:05,VALID,1004.33,VALID,0,VALID,92.6833,VALID,0,VALID,25.263,VALID,37,VALID,0.1375,
2009-01-19, 00:18:05,VALID,1004.37,VALID,0,VALID,92.7138,VALID,0,VALID,25.263,VALID,37,VALID,0,
2009-01-19, 00:19:05,VALID,1004.33,VALID,0,VALID,92.7367,VALID,0,VALID,25.263,VALID,37,VALID,0.0871094,
2009-01-19, 00:20:05,VALID,1004.35,VALID,0,VALID,92.8282,VALID,0,VALID,25.2416,VALID,37,VALID,0.00351562,
2009-01-19, 00:21:05,VALID,1004.34,VALID,0,VALID,92.8435,VALID,0,VALID,25.263,VALID,37,VALID,0,
2009-01-19, 00:22:05,VALID,1004.37,VALID,0,VALID,92.8892,VALID,0,VALID,25.2825,VALID,37,VALID,0,
2009-01-19, 00:23:05,VALID,1004.37,VALID,0,VALID,92.9121,VALID,0,VALID,25.2611,VALID,37,VALID,0,
2009-01-19, 00:24:05,VALID,1004.35,VALID,0,VALID,92.9045,VALID,0,VALID,25.3019,VALID,37,VALID,0.161719,
2009-01-19, 00:25:05,VALID,1004.37,VALID,0,VALID,92.9808,VALID,0,VALID,25.3195,VALID,37,VALID,0.149219,
2009-01-19, 00:26:05,VALID,1004.34,VALID,0,VALID,92.9579,VALID,0.100563,VALID,25.3176,VALID,37,VALID,0,
2009-01-19, 00:27:05,VALID,1004.35,VALID,0,VALID,92.9198,VALID,0,VALID,25.339,VALID,37,VALID,0,
2009-01-19, 00:28:05,VALID,1004.33,VALID,0,VALID,92.8969,VALID,0,VALID,25.339,VALID,37,VALID,0.304297,
2009-01-19, 00:29:05,VALID,1004.31,VALID,0,VALID,92.7824,VALID,0,VALID,25.3195,VALID,37,VALID,0.345313,
2009-01-19, 00:30:05,VALID,1004.3,VALID,0,VALID,92.7824,VALID,0,VALID,25.3,VALID,37,VALID,0,
2009-01-19, 00:31:05,VALID,1004.3,VALID,0,VALID,92.813,VALID,0,VALID,25.2611,VALID,37,VALID,0,
2009-01-19, 00:32:05,VALID,1004.3,VALID,0,VALID,92.9121,VALID,0,VALID,25.2825,VALID,36,VALID,0.501562,
2009-01-19, 00:33:05,VALID,1004.28,VALID,0,VALID,92.9503,VALID,0,VALID,25.2825,VALID,36,VALID,0.275391,
2009-01-19, 00:34:05,VALID,1004.3,VALID,0,VALID,93.0342,VALID,0,VALID,25.2825,VALID,36,VALID,0.224219,
2009-01-19, 00:35:05,VALID,1004.27,VALID,0,VALID,93.1029,VALID,0,VALID,25.2825,VALID,36,VALID,0.169531,
2009-01-19, 00:36:05,VALID,1004.3,VALID,0,VALID,93.1868,VALID,0,VALID,25.2806,VALID,36,VALID,0.257813,
2009-01-19, 00:37:05,VALID,1004.29,VALID,0,VALID,93.2173,VALID,0,VALID,25.3214,VALID,36,VALID,0.0183594,
2009-01-19, 00:38:05,VALID,1004.28,VALID,0,VALID,93.2478,VALID,0,VALID,25.3195,VALID,36,VALID,0,
2009-01-19, 00:39:05,VALID,1004.23,VALID,0,VALID,93.2478,VALID,0,VALID,25.339,VALID,36,VALID,0,
2009-01-19, 00:40:05,VALID,1004.23,VALID,0,VALID,93.1715,VALID,0,VALID,25.3195,VALID,36,VALID,0,
2009-01-19, 00:41:05,VALID,1004.21,VALID,0,VALID,93.1868,VALID,0,VALID,25.3409,VALID,36,VALID,0,
2009-01-19, 00:42:05,VALID,1004.2,VALID,0,VALID,93.1639,VALID,0,VALID,25.3195,VALID,36,VALID,0.277344,
2009-01-19, 00:43:05,VALID,1004.2,VALID,0,VALID,93.1181,VALID,0,VALID,25.3214,VALID,36,VALID,0.382813,
2009-01-19, 00:44:05,VALID,1004.19,VALID,0,VALID,93.1334,VALID,0,VALID,25.3,VALID,36,VALID,0.272656,
2009-01-19, 00:45:05,VALID,1004.17,VALID,0,VALID,93.1639,VALID,0,VALID,25.3019,VALID,36,VALID,0.216406,
2009-01-19, 00:46:05,VALID,1004.18,VALID,0,VALID,93.1868,VALID,0,VALID,25.3214,VALID,36,VALID,0.0578125,
2009-01-19, 00:47:05,VALID,1004.16,VALID,0,VALID,93.1868,VALID,0,VALID,25.2825,VALID,36,VALID,0.13125,
2009-01-19, 00:48:05,VALID,1004.19,VALID,0,VALID,93.2707,VALID,0,VALID,25.3019,VALID,36,VALID,0.303516,
2009-01-19, 00:49:05,VALID,1004.14,VALID,0,VALID,93.3241,VALID,0,VALID,25.3,VALID,36,VALID,0.00351562,
2009-01-19, 00:50:05,VALID,1004.17,VALID,0,VALID,93.3546,VALID,0,VALID,25.3,VALID,36,VALID,0,
2009-01-19, 00:51:05,VALID,1004.14,VALID,0,VALID,93.3546,VALID,0,VALID,25.3214,VALID,36,VALID,0.265234,
2009-01-19, 00:52:05,VALID,1004.14,VALID,0,VALID,93.408,VALID,0,VALID,25.3409,VALID,36,VALID,0.104297,
2009-01-19, 00:53:05,VALID,1004.12,VALID,0,VALID,93.4385,VALID,0,VALID,25.3409,VALID,36,VALID,0,
2009-01-19, 00:54:05,VALID,1004.12,VALID,0,VALID,93.4538,VALID,0,VALID,25.3409,VALID,36,VALID,0.257422,
2009-01-19, 00:55:05,VALID,1004.1,VALID,0,VALID,93.4538,VALID,0,VALID,25.337,VALID,36,VALID,0.0519531,
2009-01-19, 00:56:05,VALID,1004.08,VALID,0,VALID,93.4385,VALID,0,VALID,25.339,VALID,36,VALID,0,
2009-01-19, 00:57:05,VALID,1004.07,VALID,0,VALID,93.4309,VALID,0,VALID,25.337,VALID,36,VALID,0,
2009-01-19, 00:58:05,VALID,1004.04,VALID,0,VALID,93.4538,VALID,0,VALID,25.3584,VALID,36,VALID,0,
2009-01-19, 00:59:05,VALID,1004.03,VALID,0,VALID,93.4462,VALID,0,VALID,25.3993,VALID,36,VALID,0,
2009-01-19, 01:00:05,VALID,1004.02,VALID,0,VALID,93.4462,VALID,0,VALID,25.3584,VALID,36,VALID,0.0175781,
2009-01-19, 01:01:05,VALID,1004,VALID,0,VALID,93.4462,VALID,0,VALID,25.3974,VALID,36,VALID,0.115234,
2009-01-19, 01:02:05,VALID,1003.97,VALID,0,VALID,93.4462,VALID,0,VALID,25.3974,VALID,36,VALID,0,
2009-01-19, 01:03:05,VALID,1003.97,VALID,0,VALID,93.4538,VALID,0,VALID,25.4169,VALID,36,VALID,0,
2009-01-19, 01:04:05,VALID,1003.99,VALID,0,VALID,93.4309,VALID,0,VALID,25.4149,VALID,36,VALID,0,
2009-01-19, 01:05:05,VALID,1003.97,VALID,0,VALID,93.4233,VALID,0,VALID,25.4169,VALID,36,VALID,0,
2009-01-19, 01:06:05,VALID,1003.98,VALID,0,VALID,93.4385,VALID,0,VALID,25.4169,VALID,36,VALID,0.0738281,
2009-01-19, 01:07:05,VALID,1003.98,VALID,0,VALID,93.4156,VALID,0,VALID,25.4363,VALID,36,VALID,0.174219,
2009-01-19, 01:08:05,VALID,1003.95,VALID,0,VALID,93.3928,VALID,0,VALID,25.4558,VALID,304,VALID,0.576953,
2009-01-19, 01:09:05,VALID,1003.93,VALID,0,VALID,93.3394,VALID,0,VALID,25.4539,VALID,303,VALID,0.267578,
2009-01-19, 01:10:05,VALID,1003.92,VALID,0,VALID,93.3088,VALID,0.100563,VALID,25.4753,VALID,235,VALID,0.478906,
2009-01-19, 01:11:05,VALID,1003.92,VALID,0,VALID,93.2783,VALID,0,VALID,25.4948,VALID,235,VALID,0.180859,
2009-01-19, 01:12:04,VALID,1003.91,VALID,0,VALID,93.2936,VALID,0.100563,VALID,25.5123,VALID,235,VALID,0,
2009-01-19, 01:13:04,VALID,1003.88,VALID,0,VALID,93.2936,VALID,0,VALID,25.4928,VALID,235,VALID,0.335156,
2009-01-19, 01:14:04,VALID,1003.9,VALID,0,VALID,93.2707,VALID,0.100563,VALID,25.5123,VALID,235,VALID,0.278906,
2009-01-19, 01:15:04,VALID,1003.88,VALID,0,VALID,93.3241,VALID,0,VALID,25.5532,VALID,235,VALID,0,
2009-01-19, 01:16:04,VALID,1003.89,VALID,0,VALID,93.2554,VALID,0,VALID,25.5337,VALID,235,VALID,0.196484,
2009-01-19, 01:17:04,VALID,1003.89,VALID,0,VALID,93.1639,VALID,0,VALID,25.4734,VALID,235,VALID,0.309375,
2009-01-19, 01:18:04,VALID,1003.87,VALID,0,VALID,93.1715,VALID,0.100563,VALID,25.4734,VALID,223,VALID,0.330078,
2009-01-19, 01:19:04,VALID,1003.86,VALID,0,VALID,93.2173,VALID,0,VALID,25.4948,VALID,162,VALID,0.5375,
2009-01-19, 01:20:04,VALID,1003.85,VALID,0,VALID,93.2478,VALID,0,VALID,25.4948,VALID,156,VALID,0.760547,
2009-01-19, 01:21:04,VALID,1003.85,VALID,0,VALID,93.2936,VALID,0,VALID,25.4539,VALID,155,VALID,0.3875,
2009-01-19, 01:22:04,VALID,1003.86,VALID,0,VALID,93.2402,VALID,0,VALID,25.4928,VALID,155,VALID,0.619141,
2009-01-19, 01:23:04,VALID,1003.86,VALID,0,VALID,93.2478,VALID,0,VALID,25.4948,VALID,154,VALID,0.526172,
2009-01-19, 01:24:04,VALID,1003.85,VALID,0,VALID,93.2402,VALID,0,VALID,25.4948,VALID,154,VALID,0.688281,
2009-01-19, 01:25:04,VALID,1003.84,VALID,0,VALID,93.202,VALID,0,VALID,25.5162,VALID,154,VALID,0.676562,
2009-01-19, 01:26:04,VALID,1003.81,VALID,0,VALID,93.1334,VALID,0,VALID,25.5142,VALID,155,VALID,0.311719,
2009-01-19, 01:27:04,VALID,1003.82,VALID,0,VALID,93.0723,VALID,0,VALID,25.5551,VALID,155,VALID,0.388281,
2009-01-19, 01:28:04,VALID,1003.83,VALID,0,VALID,93.0723,VALID,0,VALID,25.5532,VALID,155,VALID,0.0183594,
2009-01-19, 01:29:04,VALID,1003.82,VALID,0,VALID,93.0189,VALID,0,VALID,25.5532,VALID,155,VALID,0,
2009-01-19, 01:30:04,VALID,1003.81,VALID,0,VALID,92.9884,VALID,0,VALID,25.5551,VALID,155,VALID,0,
2009-01-19, 01:31:04,VALID,1003.8,VALID,0,VALID,92.9732,VALID,0,VALID,25.5746,VALID,155,VALID,0,
2009-01-19, 01:32:04,VALID,1003.79,VALID,0,VALID,92.9045,VALID,0,VALID,25.5746,VALID,155,VALID,0.0410156,
2009-01-19, 01:33:04,VALID,1003.8,VALID,0,VALID,92.8587,VALID,0,VALID,25.5727,VALID,155,VALID,0,
2009-01-19, 01:34:04,VALID,1003.78,VALID,0,VALID,92.8358,VALID,0,VALID,25.5727,VALID,155,VALID,0,
2009-01-19, 01:35:04,VALID,1003.79,VALID,0,VALID,92.7672,VALID,0,VALID,25.5727,VALID,155,VALID,0.0679687,
2009-01-19, 01:36:04,VALID,1003.77,VALID,0,VALID,92.7443,VALID,0,VALID,25.5727,VALID,155,VALID,0.0476562,
2009-01-19, 01:37:04,VALID,1003.76,VALID,0,VALID,92.7214,VALID,0,VALID,25.5532,VALID,155,VALID,0.11875,
2009-01-19, 01:38:04,VALID,1003.74,VALID,0,VALID,92.7672,VALID,0,VALID,25.5941,VALID,155,VALID,0,
2009-01-19, 01:39:04,VALID,1003.74,VALID,0,VALID,92.7443,VALID,0,VALID,25.5727,VALID,155,VALID,0.119141,
2009-01-19, 01:40:04,VALID,1003.7,VALID,0,VALID,92.7062,VALID,0,VALID,25.5532,VALID,155,VALID,0.0410156,
2009-01-19, 01:41:04,VALID,1003.7,VALID,0,VALID,92.7214,VALID,0,VALID,25.5142,VALID,155,VALID,0.00351562,
2009-01-19, 01:42:04,VALID,1003.7,VALID,0,VALID,92.813,VALID,0,VALID,25.5162,VALID,155,VALID,0,
2009-01-19, 01:43:04,VALID,1003.67,VALID,0,VALID,92.8664,VALID,0,VALID,25.4948,VALID,155,VALID,0,
2009-01-19, 01:44:04,VALID,1003.67,VALID,0,VALID,92.8816,VALID,0,VALID,25.4753,VALID,155,VALID,0.0175781,
2009-01-19, 01:45:04,VALID,1003.67,VALID,0,VALID,92.8664,VALID,0,VALID,25.4363,VALID,130,VALID,0.342969,
2009-01-19, 01:46:04,VALID,1003.65,VALID,0,VALID,92.9121,VALID,0,VALID,25.4169,VALID,130,VALID,0.385547,
2009-01-19, 01:47:04,VALID,1003.66,VALID,0,VALID,93.0037,VALID,0,VALID,25.4363,VALID,130,VALID,0.182422,
2009-01-19, 01:48:04,VALID,1003.62,VALID,0,VALID,93.0647,VALID,0,VALID,25.4169,VALID,130,VALID,0,
2009-01-19, 01:49:04,VALID,1003.61,VALID,0,VALID,93.1334,VALID,0,VALID,25.4169,VALID,130,VALID,0,
2009-01-19, 01:50:04,VALID,1003.62,VALID,0,VALID,93.2249,VALID,0,VALID,25.4169,VALID,130,VALID,0,
2009-01-19, 01:51:04,VALID,1003.63,VALID,0,VALID,93.2554,VALID,0,VALID,25.4383,VALID,130,VALID,0,
2009-01-19, 01:52:04,VALID,1003.62,VALID,0,VALID,93.2783,VALID,0,VALID,25.4363,VALID,130,VALID,0,
2009-01-19, 01:53:04,VALID,1003.59,VALID,0,VALID,93.3317,VALID,0,VALID,25.4169,VALID,130,VALID,0,
2009-01-19, 01:54:04,VALID,1003.61,VALID,0,VALID,93.3928,VALID,0,VALID,25.4363,VALID,130,VALID,0,
2009-01-19, 01:55:04,VALID,1003.59,VALID,0,VALID,93.4233,VALID,0.100563,VALID,25.4344,VALID,130,VALID,0,
2009-01-19, 01:56:04,VALID,1003.58,VALID,0,VALID,93.4843,VALID,0.100563,VALID,25.4558,VALID,130,VALID,0,
2009-01-19, 01:57:04,VALID,1003.59,VALID,0,VALID,93.4843,VALID,0,VALID,25.4558,VALID,130,VALID,0,
2009-01-19, 01:58:04,VALID,1003.58,VALID,0,VALID,93.4767,VALID,0,VALID,25.4344,VALID,130,VALID,0,
2009-01-19, 01:59:04,VALID,1003.57,VALID,0,VALID,93.4462,VALID,0.100563,VALID,25.4149,VALID,130,VALID,0,
2009-01-19, 02:00:04,VALID,1003.58,VALID,0,VALID,93.4233,VALID,0.100563,VALID,25.4169,VALID,130,VALID,0.271484,
2009-01-19, 02:01:04,VALID,1003.57,VALID,0,VALID,93.3699,VALID,0.100563,VALID,25.376,VALID,130,VALID,0.245312,
2009-01-19, 02:02:04,VALID,1003.56,VALID,0,VALID,93.3699,VALID,0.100563,VALID,25.3779,VALID,130,VALID,0,
2009-01-19, 02:03:04,VALID,1003.59,VALID,0,VALID,93.3928,VALID,0.100563,VALID,25.339,VALID,130,VALID,0,
2009-01-19, 02:04:04,VALID,1003.59,VALID,0,VALID,93.4233,VALID,0,VALID,25.339,VALID,130,VALID,0,
2009-01-19, 02:05:04,VALID,1003.59,VALID,0,VALID,93.4462,VALID,0.100563,VALID,25.339,VALID,130,VALID,0,
2009-01-19, 02:06:04,VALID,1003.61,VALID,0,VALID,93.4996,VALID,0.100563,VALID,25.3176,VALID,130,VALID,0,
2009-01-19, 02:07:04,VALID,1003.61,VALID,0,VALID,93.5377,VALID,0.100563,VALID,25.339,VALID,130,VALID,0,
2009-01-19, 02:08:04,VALID,1003.59,VALID,0,VALID,93.5682,VALID,0.100563,VALID,25.3195,VALID,130,VALID,0,
2009-01-19, 02:09:04,VALID,1003.62,VALID,0,VALID,93.5682,VALID,0.100563,VALID,25.3195,VALID,130,VALID,0,
2009-01-19, 02:10:04,VALID,1003.62,VALID,0,VALID,93.6216,VALID,0,VALID,25.3,VALID,130,VALID,0.329688,
2009-01-19, 02:11:04,VALID,1003.63,VALID,0,VALID,93.5911,VALID,0,VALID,25.3214,VALID,130,VALID,0.4625,
2009-01-19, 02:12:04,VALID,1003.62,VALID,0,VALID,93.6216,VALID,0,VALID,25.3195,VALID,129,VALID,0.471875,
2009-01-19, 02:13:04,VALID,1003.63,VALID,0,VALID,93.5606,VALID,0,VALID,25.3019,VALID,124,VALID,0.513281,
2009-01-19, 02:14:04,VALID,1003.65,VALID,0,VALID,93.6064,VALID,0,VALID,25.3214,VALID,113,VALID,0.338672,
2009-01-19, 02:15:04,VALID,1003.64,VALID,0,VALID,93.6598,VALID,0,VALID,25.2806,VALID,113,VALID,0.213672,
2009-01-19, 02:16:04,VALID,1003.64,VALID,0,VALID,93.6521,VALID,0,VALID,25.2611,VALID,113,VALID,0.14375,
2009-01-19, 02:17:04,VALID,1003.62,VALID,0,VALID,93.675,VALID,0,VALID,25.2611,VALID,113,VALID,0.285547,
2009-01-19, 02:18:04,VALID,1003.63,VALID,0,VALID,93.6826,VALID,0,VALID,25.2611,VALID,113,VALID,0.273047,
2009-01-19, 02:19:04,VALID,1003.6,VALID,0,VALID,93.7208,VALID,0,VALID,25.2611,VALID,113,VALID,0.0335938,
2009-01-19, 02:20:04,VALID,1003.61,VALID,0,VALID,93.7284,VALID,0,VALID,25.2611,VALID,113,VALID,0.235156,
2009-01-19, 02:21:04,VALID,1003.6,VALID,0,VALID,93.7361,VALID,0,VALID,25.263,VALID,113,VALID,0.0847656,
2009-01-19, 02:22:04,VALID,1003.61,VALID,0,VALID,93.7589,VALID,0,VALID,25.2397,VALID,113,VALID,0.00742187,
2009-01-19, 02:23:04,VALID,1003.61,VALID,0,VALID,93.7971,VALID,0,VALID,25.2611,VALID,113,VALID,0,
2009-01-19, 02:24:04,VALID,1003.61,VALID,0,VALID,93.82,VALID,0,VALID,25.2611,VALID,113,VALID,0,
2009-01-19, 02:25:04,VALID,1003.6,VALID,0,VALID,93.8047,VALID,0.100563,VALID,25.2806,VALID,113,VALID,0,
2009-01-19, 02:26:04,VALID,1003.62,VALID,0,VALID,93.8123,VALID,0,VALID,25.2611,VALID,113,VALID,0,
2009-01-19, 02:27:04,VALID,1003.59,VALID,0,VALID,93.8581,VALID,0,VALID,25.2592,VALID,113,VALID,0,
2009-01-19, 02:28:04,VALID,1003.6,VALID,0,VALID,93.9115,VALID,0,VALID,25.3,VALID,113,VALID,0,
2009-01-19, 02:29:04,VALID,1003.59,VALID,0,VALID,93.881,VALID,0.100563,VALID,25.2786,VALID,113,VALID,0,
2009-01-19, 02:30:04,VALID,1003.61,VALID,0,VALID,93.8734,VALID,0.100563,VALID,25.2786,VALID,113,VALID,0,
2009-01-19, 02:31:04,VALID,1003.61,VALID,0,VALID,93.8886,VALID,0.100563,VALID,25.2806,VALID,113,VALID,0,
2009-01-19, 02:32:04,VALID,1003.59,VALID,0,VALID,93.881,VALID,0.100563,VALID,25.2786,VALID,113,VALID,0,
2009-01-19, 02:33:04,VALID,1003.61,VALID,0,VALID,93.8886,VALID,0,VALID,25.2592,VALID,113,VALID,0,
2009-01-19, 02:34:04,VALID,1003.56,VALID,0,VALID,93.9115,VALID,0.100563,VALID,25.2592,VALID,113,VALID,0,
2009-01-19, 02:35:04,VALID,1003.54,VALID,0,VALID,93.8963,VALID,0,VALID,25.2806,VALID,113,VALID,0,
2009-01-19, 02:36:04,VALID,1003.54,VALID,0,VALID,93.9115,VALID,0.100563,VALID,25.2592,VALID,113,VALID,0,
2009-01-19, 02:37:04,VALID,1003.51,VALID,0,VALID,93.9191,VALID,0.100563,VALID,25.2806,VALID,113,VALID,0,
2009-01-19, 02:38:04,VALID,1003.5,VALID,0,VALID,93.9268,VALID,0,VALID,25.2592,VALID,113,VALID,0,
2009-01-19, 02:39:04,VALID,1003.45,VALID,0,VALID,93.9344,VALID,0,VALID,25.2592,VALID,113,VALID,0,
2009-01-19, 02:40:04,VALID,1003.47,VALID,0,VALID,93.9344,VALID,0,VALID,25.263,VALID,113,VALID,0,
2009-01-19, 02:41:04,VALID,1003.45,VALID,0,VALID,93.9497,VALID,0,VALID,25.2825,VALID,113,VALID,0,
2009-01-19, 02:42:04,VALID,1003.43,VALID,0,VALID,93.9573,VALID,0,VALID,25.2825,VALID,113,VALID,0,
2009-01-19, 02:43:04,VALID,1003.4,VALID,0,VALID,93.9802,VALID,0,VALID,25.2825,VALID,113,VALID,0,
2009-01-19, 02:44:04,VALID,1003.4,VALID,0,VALID,93.9878,VALID,0,VALID,25.2806,VALID,113,VALID,0,
2009-01-19, 02:45:04,VALID,1003.41,VALID,0,VALID,93.9954,VALID,0,VALID,25.2806,VALID,113,VALID,0,
2009-01-19, 02:46:04,VALID,1003.41,VALID,0,VALID,93.9954,VALID,0,VALID,25.2806,VALID,113,VALID,0,
2009-01-19, 02:47:04,VALID,1003.41,VALID,0,VALID,93.9878,VALID,0,VALID,25.3214,VALID,113,VALID,0,
2009-01-19, 02:48:04,VALID,1003.39,VALID,0,VALID,93.9191,VALID,0,VALID,25.2806,VALID,113,VALID,0,
2009-01-19, 02:49:04,VALID,1003.38,VALID,0,VALID,93.9268,VALID,0,VALID,25.2825,VALID,113,VALID,0,
2009-01-19, 02:50:04,VALID,1003.38,VALID,0,VALID,93.9268,VALID,0,VALID,25.2611,VALID,113,VALID,0,
2009-01-19, 02:51:04,VALID,1003.34,VALID,0,VALID,93.8963,VALID,0,VALID,25.2416,VALID,113,VALID,0,
2009-01-19, 02:52:04,VALID,1003.36,VALID,0,VALID,93.9191,VALID,0,VALID,25.2416,VALID,113,VALID,0.283594,
2009-01-19, 02:53:04,VALID,1003.34,VALID,0,VALID,93.9268,VALID,0,VALID,25.2435,VALID,113,VALID,0.199219,
2009-01-19, 02:54:04,VALID,1003.34,VALID,0,VALID,93.9268,VALID,0,VALID,25.2221,VALID,113,VALID,0.00195313,
2009-01-19, 02:55:04,VALID,1003.37,VALID,0,VALID,93.942,VALID,0,VALID,25.2202,VALID,113,VALID,0,
2009-01-19, 02:56:04,VALID,1003.36,VALID,0,VALID,93.9573,VALID,0.100563,VALID,25.2202,VALID,113,VALID,0,
2009-01-19, 02:57:04,VALID,1003.34,VALID,0,VALID,93.9954,VALID,0,VALID,25.2202,VALID,113,VALID,0,
2009-01-19, 02:58:04,VALID,1003.34,VALID,0,VALID,94.0107,VALID,0.100563,VALID,25.2611,VALID,113,VALID,0,
2009-01-19, 02:59:04,VALID,1003.34,VALID,0,VALID,94.0183,VALID,0.100563,VALID,25.2611,VALID,113,VALID,0.135547,
2009-01-19, 03:00:04,VALID,1003.35,VALID,0,VALID,93.9802,VALID,0.100563,VALID,25.2397,VALID,113,VALID,0.190234,
2009-01-19, 03:01:04,VALID,1003.35,VALID,0,VALID,93.9878,VALID,0.100563,VALID,25.2202,VALID,113,VALID,0,
2009-01-19, 03:02:04,VALID,1003.33,VALID,0,VALID,93.9878,VALID,0.100563,VALID,25.2416,VALID,113,VALID,0,
2009-01-19, 03:03:04,VALID,1003.33,VALID,0,VALID,93.9954,VALID,0.100563,VALID,25.2007,VALID,113,VALID,0,
2009-01-19, 03:04:04,VALID,1003.32,VALID,0,VALID,93.9802,VALID,0.100563,VALID,25.2007,VALID,110,VALID,0.301953,
2009-01-19, 03:05:04,VALID,1003.32,VALID,0,VALID,93.9725,VALID,0.100563,VALID,25.1813,VALID,110,VALID,0.143359,
2009-01-19, 03:06:04,VALID,1003.31,VALID,0,VALID,93.9802,VALID,0,VALID,25.1832,VALID,110,VALID,0.0484375,
2009-01-19, 03:07:04,VALID,1003.3,VALID,0,VALID,94.0183,VALID,0.100563,VALID,25.1618,VALID,110,VALID,0,
2009-01-19, 03:08:04,VALID,1003.31,VALID,0,VALID,94.0336,VALID,0,VALID,25.1618,VALID,110,VALID,0,
2009-01-19, 03:09:04,VALID,1003.31,VALID,0,VALID,94.0488,VALID,0.100563,VALID,25.1618,VALID,110,VALID,0,
2009-01-19, 03:10:04,VALID,1003.3,VALID,0,VALID,94.0565,VALID,0,VALID,25.1851,VALID,110,VALID,0,
2009-01-19, 03:11:04,VALID,1003.3,VALID,0,VALID,94.0565,VALID,0,VALID,25.1442,VALID,110,VALID,0,
2009-01-19, 03:12:04,VALID,1003.32,VALID,0,VALID,94.087,VALID,0,VALID,25.1248,VALID,110,VALID,0,
2009-01-19, 03:13:04,VALID,1003.24,VALID,0,VALID,94.1328,VALID,0,VALID,25.1442,VALID,110,VALID,0,
2009-01-19, 03:14:04,VALID,1003.27,VALID,0,VALID,94.148,VALID,0,VALID,25.1442,VALID,110,VALID,0,
2009-01-19, 03:15:04,VALID,1003.25,VALID,0,VALID,94.1556,VALID,0,VALID,25.1461,VALID,110,VALID,0,
2009-01-19, 03:16:04,VALID,1003.27,VALID,0,VALID,94.1404,VALID,0,VALID,25.1248,VALID,110,VALID,0,
2009-01-19, 03:17:04,VALID,1003.23,VALID,0,VALID,94.1785,VALID,0,VALID,25.1053,VALID,110,VALID,0,
2009-01-19, 03:18:04,VALID,1003.28,VALID,0,VALID,94.1785,VALID,0,VALID,25.1053,VALID,110,VALID,0,
2009-01-19, 03:19:04,VALID,1003.25,VALID,0,VALID,94.1556,VALID,0,VALID,25.1053,VALID,110,VALID,0,
2009-01-19, 03:20:04,VALID,1003.26,VALID,0,VALID,94.1709,VALID,0,VALID,25.1267,VALID,110,VALID,0,
2009-01-19, 03:21:04,VALID,1003.26,VALID,0,VALID,94.1633,VALID,0,VALID,25.0858,VALID,110,VALID,0,
2009-01-19, 03:22:04,VALID,1003.27,VALID,0,VALID,94.1938,VALID,0,VALID,25.0858,VALID,110,VALID,0,
2009-01-19, 03:23:04,VALID,1003.26,VALID,0,VALID,94.1862,VALID,0,VALID,25.0877,VALID,110,VALID,0,
2009-01-19, 03:24:04,VALID,1003.29,VALID,0,VALID,94.209,VALID,0,VALID,25.0663,VALID,110,VALID,0,
2009-01-19, 03:25:04,VALID,1003.26,VALID,0,VALID,94.209,VALID,0,VALID,25.0663,VALID,110,VALID,0,
2009-01-19, 03:26:04,VALID,1003.26,VALID,0,VALID,94.2243,VALID,0,VALID,25.0682,VALID,110,VALID,0,
2009-01-19, 03:27:04,VALID,1003.25,VALID,0,VALID,94.2167,VALID,0,VALID,25.0488,VALID,110,VALID,0,
2009-01-19, 03:28:04,VALID,1003.21,VALID,0,VALID,94.2167,VALID,0,VALID,25.0079,VALID,110,VALID,0,
2009-01-19, 03:29:04,VALID,1003.21,VALID,0,VALID,94.2319,VALID,0,VALID,25.0274,VALID,110,VALID,0,
2009-01-19, 03:30:04,VALID,1003.16,VALID,0,VALID,94.2624,VALID,0,VALID,25.006,VALID,110,VALID,0,
2009-01-19, 03:31:04,VALID,1003.15,VALID,0,VALID,94.2243,VALID,0,VALID,25.0274,VALID,110,VALID,0,
2009-01-19, 03:32:04,VALID,1003.17,VALID,0,VALID,94.2472,VALID,0,VALID,25.0098,VALID,110,VALID,0,
2009-01-19, 03:33:04,VALID,1003.13,VALID,0,VALID,94.2472,VALID,0,VALID,25.0098,VALID,110,VALID,0,
2009-01-19, 03:34:04,VALID,1003.16,VALID,0,VALID,94.2548,VALID,0,VALID,24.969,VALID,110,VALID,0,
2009-01-19, 03:35:04,VALID,1003.13,VALID,0,VALID,94.2853,VALID,0,VALID,24.9885,VALID,110,VALID,0,
2009-01-19, 03:36:04,VALID,1003.15,VALID,0,VALID,94.2777,VALID,0,VALID,24.9495,VALID,110,VALID,0,
2009-01-19, 03:37:04,VALID,1003.15,VALID,0,VALID,94.2777,VALID,0,VALID,24.9495,VALID,110,VALID,0,
2009-01-19, 03:38:04,VALID,1003.18,VALID,0,VALID,94.2701,VALID,0,VALID,24.93,VALID,110,VALID,0,
2009-01-19, 03:39:04,VALID,1003.17,VALID,0,VALID,94.2853,VALID,0,VALID,24.9514,VALID,110,VALID,0,
2009-01-19, 03:40:04,VALID,1003.19,VALID,0,VALID,94.2396,VALID,0.100563,VALID,24.9106,VALID,110,VALID,0,
2009-01-19, 03:41:04,VALID,1003.19,VALID,0,VALID,94.2167,VALID,0.100563,VALID,24.8911,VALID,110,VALID,0,
2009-01-19, 03:42:04,VALID,1003.17,VALID,0,VALID,94.2701,VALID,0,VALID,24.8522,VALID,110,VALID,0,
2009-01-19, 03:43:04,VALID,1003.21,VALID,0,VALID,94.354,VALID,0,VALID,24.8503,VALID,110,VALID,0,
2009-01-19, 03:44:04,VALID,1003.2,VALID,0,VALID,94.3464,VALID,0,VALID,24.8522,VALID,110,VALID,0,
2009-01-19, 03:45:04,VALID,1003.22,VALID,0,VALID,94.3998,VALID,0.100563,VALID,24.8716,VALID,110,VALID,0,
2009-01-19, 03:46:04,VALID,1003.25,VALID,0,VALID,94.3845,VALID,0.100563,VALID,24.8503,VALID,110,VALID,0,
2009-01-19, 03:47:04,VALID,1003.24,VALID,0,VALID,94.4074,VALID,0,VALID,24.8716,VALID,110,VALID,0,
2009-01-19, 03:48:04,VALID,1003.22,VALID,0,VALID,94.4074,VALID,0.100563,VALID,24.8697,VALID,110,VALID,0,
2009-01-19, 03:49:04,VALID,1003.23,VALID,0,VALID,94.415,VALID,0,VALID,24.8716,VALID,110,VALID,0,
2009-01-19, 03:50:04,VALID,1003.19,VALID,0,VALID,94.4761,VALID,0,VALID,24.8716,VALID,110,VALID,0,
2009-01-19, 03:51:04,VALID,1003.17,VALID,0,VALID,94.5218,VALID,0.100563,VALID,24.8892,VALID,110,VALID,0,